Flag for Colombia Weather past 2 weeks in Cali, Colombia

Now
93 °F

Scattered clouds.


Feels Like: 93 °F
Forecast: N/A
Wind: 9 mph from West

Location: Cali / Alfonso Bonillaaragon

Current Time: Jul 29, 2014 at 3:58:59 PM

Latest Report: Jul 29, 2014 at 3:00 PM


Visibility: N/A

Pressure: 29.90 "Hg

Humidity: 34%

Dew point: 61 °F

Location of CaliLocation

Historic Weather in Cali — Graph

°F

Cali temperature yesterday

Maximum temperature yesterday: 93 °F (at 3:00 PM)
Minimum temperature yesterday: 66 °F (at 2:00 AM)
Average temperature yesterday: 77 °F

Past Weeks' High & Low Weather Summary

 TemperatureHumidityPressure
High93 °F (Jul 18, 3:00 PM)94% (Jul 16, 1:00 AM)30.07 "Hg (Jul 16, 1:00 AM)
Low64 °F (Jul 19, 5:00 AM)32% (Jul 18, 3:00 PM)28.85 "Hg (Jul 26, 3:00 AM)
Average77 °F69%29.94 "Hg
* Reported Jul 14 3:00 PM — Jul 29 3:00 PM, Cali, Weather by CustomWeather, © 2014

Note: Actual official high and low records may vary slightly from our data, if they occured in-between our weather recording intervals... More about our weather records

Advertising

Cali weather history for previous 24 hours

 ConditionsComfort  
Time TempWeatherWind HumidityBarometerVisibility
3:00 PM
Jul 29
93 °FScattered clouds.9 mph34%29.90 "HgN/A
2:00 PM72 °FScattered clouds.5 mph73%29.92 "HgN/A
1:00 PM86 °FScattered clouds.6 mph49%29.96 "HgN/A
12:00 PM88 °FScattered clouds.6 mph46%29.99 "HgN/A
11:00 AM82 °FPassing clouds.3 mph58%30.02 "HgN/A
10:00 AM82 °FScattered clouds.3 mph58%30.03 "Hg6 mi
9:00 AM79 °FScattered clouds.3 mph61%30.04 "Hg6 mi
8:00 AM72 °FScattered clouds.3 mph78%30.04 "Hg6 mi
7:00 AM68 °FScattered clouds.5 mph88%30.01 "Hg6 mi
6:00 AM64 °FPassing clouds.3 mph94%29.99 "HgN/A
5:00 AM66 °FClear.2 mph94%29.97 "HgN/A
4:00 AM68 °FPassing clouds.3 mph88%29.96 "HgN/A
3:00 AM70 °FPassing clouds.5 mph88%29.97 "HgN/A
2:00 AM70 °FPassing clouds.No wind88%29.99 "HgN/A
1:00 AM72 °FPassing clouds.6 mph83%29.99 "HgN/A
12:00 AM72 °FPassing clouds.7 mph78%30.00 "HgN/A
11:00 PM
Jul 28
72 °FPassing clouds.7 mph78%29.98 "HgN/A
10:00 PM72 °FPassing clouds.7 mph78%29.98 "HgN/A
9:00 PM75 °FPassing clouds.6 mph69%29.96 "HgN/A
8:00 PM77 °FPassing clouds.9 mph65%29.91 "HgN/A
7:00 PM79 °FPassing clouds.13 mph58%29.90 "HgN/A
6:00 PM84 °FScattered clouds.12 mph48%29.87 "HgN/A
5:00 PM88 °FPassing clouds.14 mph43%29.85 "HgN/A
4:00 PM93 °FPassing clouds.14 mph36%29.84 "HgN/A
3:00 PM93 °FPassing clouds.14 mph34%29.85 "HgN/A
Weather by CustomWeather, © 2014

See weather overviewHow to use our weather pages